DW5160 Weather Reports


time (UTC)temp
C
wind
direction
speed
KPH
gust
KPH
rain 1hr
cm
rain 24hr
cm
rain mn
cm
humidity
%
barometer
mb
20260510021611 12 294 0.0 0.0 0.56 2.18 2.06 85 1008.8
20260510020035 12 294 0.0 0.0 1.42 2.13 2.01 84 1008.8
20260510014547 12 294 0.0 0.0 1.27 2.03 1.83 83 1009.1
20260510013035 12 294 0.0 9.7 1.12 1.88 1.68 82 1009.0
20260510011533 13 341 1.6 16.1 0.91 1.68 1.45 78 1008.6
20260510010042 17 341 4.8 38.6 0.00 0.76 0.56 66 1007.5
20260510004531 18 205 0.0 12.9 0.00 0.79 0.56 60 1006.2
20260510003030 18 215 0.0 11.3 0.00 0.79 0.56 60 1006.0
20260510001533 18 205 3.2 11.3 0.00 0.79 0.56 60 1005.9
20260510000030 18 186 6.4 16.1 0.00 0.79 0.56 58 1005.8
20260509234528 18 212 0.0 9.7 0.00 0.79 0.56 58 1005.6
20260509233033 19 177 3.2 22.5 0.00 0.79 0.56 56 1005.3
20260509231528 20 277 6.4 29.0 0.00 0.79 0.56 55 1005.2
20260509230036 20 209 4.8 20.9 0.00 0.79 0.56 54 1005.4
20260509224526 20 218 1.6 16.1 0.00 0.79 0.56 54 1005.5
20260509223026 20 209 3.2 25.7 0.00 0.79 0.56 54 1005.2
20260509221524 20 242 1.6 24.1 0.00 0.79 0.56 54 1005.3
20260509220025 20 197 1.6 20.9 0.00 0.79 0.56 53 1005.4
20260509214522 20 199 8.0 29.0 0.00 0.86 0.56 53 1005.4
20260509213021 20 224 0.0 27.4 0.00 0.86 0.56 55 1005.4
20260509211520 20 267 8.0 20.9 0.00 0.86 0.56 53 1005.5
20260509210018 20 219 1.6 22.5 0.00 0.86 0.56 54 1005.7
20260509204515 21 246 3.2 20.9 0.00 0.89 0.56 55 1005.9
20260509203022 20 227 3.2 19.3 0.00 0.89 0.56 56 1006.2
20260509201515 20 201 4.8 11.3 0.00 0.89 0.56 55 1006.3
20260509200008 19 235 4.8 19.3 0.00 0.89 0.56 60 1006.6
20260509194507 19 273 6.4 17.7 0.00 0.89 0.56 59 1007.0
20260509193014 18 267 4.8 27.4 0.00 0.89 0.56 61 1007.1
20260509191503 18 213 4.8 20.9 0.00 0.89 0.56 62 1007.0
20260509190002 18 271 4.8 19.3 0.00 0.89 0.56 62 1007.4
20260509184610 18 206 8.0 22.5 0.00 0.91 0.56 65 1007.3
20260509183059 17 236 8.0 22.5 0.00 0.91 0.56 70 1007.2
20260509181600 17 246 1.6 27.4 0.00 0.91 0.56 71 1007.5
20260509180100 17 207 1.6 16.1 0.00 0.91 0.56 72 1007.6
20260509174548 16 248 3.2 14.5 0.00 0.91 0.56 75 1007.8
20260509173056 15 239 0.0 11.3 0.00 0.91 0.56 76 1007.8
20260509171542 15 261 0.0 11.3 0.00 0.91 0.56 80 1007.9
20260509170038 14 194 3.2 11.3 0.00 0.91 0.56 81 1007.9
20260509164534 14 209 0.0 0.0 0.00 0.91 0.56 84 1007.9
20260509163035 13 209 0.0 8.0 0.00 0.91 0.56 85 1007.9
20260509161539 13 217 0.0 9.7 0.00 0.91 0.56 84 1007.8
20260509160035 13 227 0.0 11.3 0.00 0.91 0.56 86 1007.8
20260509154529 13 254 3.2 9.7 0.00 0.91 0.56 86 1007.7
20260509153046 13 194 3.2 11.3 0.00 0.91 0.56 87 1007.7
20260509151523 12 209 0.0 6.4 0.10 0.91 0.56 90 1007.8
20260509150021 11 204 0.0 11.3 0.10 0.91 0.56 90 1007.9
20260509144519 11 209 0.0 6.4 0.10 0.91 0.56 90 1007.8
20260509143016 11 206 0.0 8.0 0.10 0.91 0.56 90 1007.8
20260509141514 11 201 0.0 0.0 0.00 0.81 0.46 90 1007.9
20260509140011 11 203 0.0 4.8 0.00 0.81 0.46 90 1007.9
20260509134510 11 202 0.0 6.4 0.00 0.81 0.46 90 1007.9
20260509133009 11 202 0.0 0.0 0.00 0.81 0.46 91 1008.1
20260509131507 10 202 0.0 9.7 0.00 0.81 0.46 91 1008.2
20260509130007 10 216 0.0 4.8 0.00 0.81 0.46 91 1008.0
20260509124505 10 218 0.0 0.0 0.00 0.81 0.46 91 1008.0
20260509123003 10 218 0.0 0.0 0.03 0.81 0.46 91 1008.1
20260509121501 10 218 0.0 0.0 0.03 0.81 0.46 91 1008.3
20260509120101 10 218 0.0 0.0 0.03 0.81 0.46 91 1008.3
20260509120001 10 218 0.0 0.0 0.03 0.81 0.46 91 1008.3
20260509114559 9 218 0.0 0.0 0.03 0.81 0.46 91 1008.2
20260509113058 9 218 0.0 0.0 0.03 0.79 0.43 90 1008.1
20260509111559 9 218 0.0 0.0 0.03 0.79 0.43 90 1008.2
20260509110055 9 218 0.0 0.0 0.08 0.79 0.43 90 1008.2
20260509104559 9 218 0.0 0.0 0.10 0.79 0.43 90 1008.2
20260509103104 9 218 0.0 0.0 0.10 0.76 0.41 90 1008.1
20260509101559 9 218 0.0 0.0 0.13 0.76 0.41 90 1008.2
20260509100054 9 218 0.0 0.0 0.10 0.71 0.36 90 1008.3
20260509094557 9 218 0.0 0.0 0.13 0.69 0.33 90 1008.2
20260509093048 9 218 0.0 0.0 0.13 0.66 0.30 89 1008.6
20260509091553 9 218 0.0 0.0 0.10 0.61 0.25 89 1008.7
20260509090054 9 218 0.0 0.0 0.15 0.61 0.25 89 1008.7
20260509084549 9 218 0.0 0.0 0.13 0.56 0.20 89 1009.0
20260509083047 9 218 0.0 0.0 0.13 0.53 0.18 89 1009.1
20260509081542 9 218 0.0 0.0 0.13 0.51 0.15 89 1009.4
20260509080048 9 218 0.0 0.0 0.08 0.46 0.10 89 1009.4
20260509074555 9 218 0.0 0.0 0.03 0.41 0.05 89 1009.4
20260509073058 8 218 0.0 0.0 0.03 0.41 0.05 89 1009.2
20260509071545 8 218 0.0 0.0 0.00 0.38 0.03 89 1009.1
20260509070041 8 218 0.0 0.0 0.00 0.38 0.03 89 1009.2
20260509064539 8 218 0.0 0.0 0.00 0.38 0.03 89 1009.1
20260509063052 9 218 0.0 0.0 0.00 0.38 0.03 88 1009.2
20260509061537 9 218 0.0 0.0 0.00 0.38 0.03 88 1009.4
20260509060039 9 218 0.0 0.0 0.00 0.38 0.03 88 1009.7
20260509054535 9 218 0.0 0.0 0.00 0.38 0.03 88 1009.9
20260509053048 9 218 0.0 0.0 0.03 0.38 0.03 88 1010.0
20260509051528 9 218 0.0 0.0 0.03 0.38 0.03 88 1010.4
20260509050027 9 218 0.0 0.0 0.03 0.38 0.03 88 1010.4
20260509044525 9 218 0.0 0.0 0.03 0.38 0.03 88 1010.4
20260509043038 9 218 0.0 0.0 0.03 0.36 0.00 87 1010.5
20260509041521 9 218 0.0 0.0 0.05 0.36 0.00 87 1011.0
20260509040019 9 218 0.0 0.0 0.05 0.36 0.00 87 1011.2
20260509034518 10 218 0.0 0.0 0.10 0.36 0.36 87 1011.3
20260509033018 10 218 0.0 0.0 0.08 0.33 0.33 87 1011.4
20260509031517 10 218 0.0 0.0 0.08 0.30 0.30 87 1011.6
20260509030018 10 218 0.0 0.0 0.08 0.30 0.30 87 1011.8
20260509024516 10 218 0.0 0.0 0.05 0.25 0.25 86 1011.9
20260509023016 10 218 0.0 0.0 0.08 0.25 0.25 86 1012.1